Flag for Canada Weather past 2 weeks in Toronto, Ontario, Canada

Now
39 °F

Overcast.


Feels Like: 29 °F
Forecast: 36 / 49 °F
Wind: 20 mph from Northwest

Location: Toronto Pearson International Airport


UV Index: 3 (Moderate)

Visibility: 15 mi


Pressure: 29.75 "Hg

Humidity: 81%

Dew point: 34 °F

Location of TorontoLocation

Historic Weather in Toronto

°F

Toronto temperature yesterday

Maximum temperature yesterday: 55 °F (at 9:00 AM)
Minimum temperature yesterday: 43 °F (at 7:00 PM)
Average temperature yesterday: 50 °F

Past Weeks' High & Low Weather Summary

 TemperatureHumidityPressure
High72 °F (Apr 13, 5:00 PM)94% (Apr 22, 6:00 AM)30.56 "Hg (Apr 22, 6:00 AM)
Low21 °F (Apr 16, 3:00 AM)26% (Apr 11, 6:00 PM)29.33 "Hg (Apr 8, 6:00 AM)
Average45 °F62%30.01 "Hg
* Reported Apr 8 3:00 AM — Apr 23 3:00 AM, Toronto, Weather by CustomWeather, © 2014

Note: Actual official high and low records may vary slightly from our data, if they occured in-between our weather recording intervals... More about our weather records

Advertising

Historic Weather Conditions — Data for Previous 24 hours

 ConditionsComfort  
Time TempWeatherWind HumidityBarometerVisibility
3:00 AM
Apr 23
39 °FOvercast.20 mph81%29.75 "Hg15 mi
2:00 AM39 °FMostly cloudy.24 mph81%29.73 "Hg15 mi
1:00 AM41 °FOvercast.17 mph76%29.73 "Hg15 mi
12:00 AM41 °FMostly cloudy.18 mph76%29.72 "Hg15 mi
11:00 PM
Apr 22
43 °FOvercast.17 mph71%29.72 "Hg15 mi
10:00 PM43 °FOvercast.18 mph71%29.71 "Hg15 mi
9:00 PM43 °FMore clouds than sun.17 mph76%29.69 "Hg15 mi
8:00 PM43 °FOvercast.18 mph76%29.68 "Hg15 mi
7:00 PM43 °FOvercast.21 mph71%29.68 "Hg15 mi
6:00 PM45 °FOvercast.23 mph66%29.66 "Hg15 mi
5:00 PM48 °FPartly sunny.24 mph62%29.64 "Hg15 mi
4:00 PM50 °FScattered clouds.23 mph62%29.61 "Hg15 mi
3:00 PM50 °FScattered clouds.21 mph67%29.61 "Hg15 mi
2:00 PM50 °FBroken clouds.18 mph67%29.61 "Hg15 mi
1:00 PM52 °FPartly sunny.16 mph72%29.59 "Hg15 mi
12:00 PM52 °FPartly sunny.17 mph77%29.60 "Hg15 mi
11:00 AM55 °FPartly sunny.21 mph82%29.58 "Hg15 mi
10:00 AM55 °FPartly sunny.7 mph88%29.54 "Hg15 mi
9:00 AM55 °FSprinkles. Overcast.15 mph88%29.59 "Hg12 mi
8:00 AM54 °FPartly sunny.6 mph94%29.57 "Hg7 mi
7:00 AM52 °FSprinkles. Fog.7 mph94%29.57 "Hg6 mi
6:00 AM50 °FSprinkles. Mostly cloudy.3 mph94%29.58 "Hg10 mi
5:00 AM52 °FSprinkles. Mostly cloudy.2 mph82%29.60 "Hg12 mi
4:00 AM52 °FSprinkles. Mostly cloudy.2 mph77%29.61 "Hg15 mi
Weather by CustomWeather, © 2014

See weather overview